This demonstration page uses our WeatherBlox Daily Observations layout. Learn more.

Left ArrowRight Arrow

44.89941, -97.11507

Hourly Observations for July 21, 2020

Temp ( °F °C ) Dew Point ( °F °C ) Humidity (%) Winds ( mph kmh ) Pressure ( in mb ) Visibility ( mi km ) Precip ( " mm )
12:17 am 00:17 Mostly Cloudy with Nearby Thunderstorms 64 17.8 63 17.2 96 96 S 7 11 29.90 1012 10 16 0.00 0.00
12:46 am 00:46 Mostly Cloudy 64 17.8 63 17.2 96 96 S 8 13 29.88 1012 10 16 0.00 0.00
12:53 am 00:53 Mostly Cloudy 64 17.8 63 17.2 96 96 S 10 17 29.89 1012 10 16 0.00 0.00
1:53 am 01:53 Mostly Cloudy 66 18.9 64 17.8 93 93 SSW 10 17 29.89 1012 10 16 0.00 0.00
2:32 am 02:32 Cloudy with Nearby Thunderstorms 66 18.9 64 17.8 93 93 W 8 13 29.89 1012 10 16 0.00 0.00
2:36 am 02:36 Cloudy with Nearby Thunderstorms 66 18.9 65 18.3 96 96 W 14 22 29.89 1012 2 3 0.17 4.32
2:38 am 02:38 Cloudy with Nearby Thunderstorms 66 18.9 65 18.3 96 96 WSW 9 15 29.89 1012 1 2 0.25 6.35
2:42 am 02:42 Cloudy with Strong Thunderstorms 65 18.3 63 17.2 93 93 SW 16 26 29.90 1012 1 1 0.37 9.40
2:53 am 02:53 Cloudy with Strong Thunderstorms 64 17.8 62 16.7 93 93 W 6 9 29.89 1012 1 2 0.63 16.00
2:59 am 02:59 Mostly Cloudy with Thunderstorms 64 17.8 62 16.7 93 93 WSW 6 9 29.87 1011 2 3 0.01 0.25
3:01 am 03:01 Mostly Cloudy with Nearby Thunderstorms 64 17.8 62 16.7 93 93 SSW 7 11 29.87 1011 4 6 0.01 0.25
3:08 am 03:08 Mostly Cloudy 64 17.8 63 17.2 96 96 WSW 5 7 29.87 1011 10 16 0.01 0.25
3:21 am 03:21 Cloudy 64 17.8 63 17.2 96 96 SW 6 9 29.87 1011 10 16 0.01 0.25
3:53 am 03:53 Cloudy 64 17.8 62 16.7 93 93 Calm 29.88 1012 10 16 0.01 0.25
4:05 am 04:05 Cloudy 64 17.8 63 17.2 96 96 Calm 29.88 1012 10 16 0.00 0.00
4:34 am 04:34 Cloudy 65 18.3 63 17.2 93 93 W 6 9 29.89 1012 10 16 0.00 0.00
4:53 am 04:53 Cloudy 66 18.9 63 17.2 90 90 WNW 10 17 29.91 1013 10 16 0.00 0.00
5:18 am 05:18 Mostly Cloudy 65 18.3 63 17.2 93 93 WNW 6 9 29.90 1012 10 16 0.00 0.00
5:44 am 05:44 Partly Cloudy 63 17.2 62 16.7 97 97 WNW 6 9 29.89 1012 10 16 0.00 0.00
5:53 am 05:53 Mostly Clear 63 17.2 62 16.7 97 97 W 6 9 29.91 1013 10 16 0.00 0.00
6:05 am 06:05 Partly Cloudy 64 17.8 63 17.2 96 96 WNW 12 19 29.90 1012 10 16 0.00 0.00
6:53 am 06:53 Sunny 65 18.3 63 17.2 93 93 WNW 7 11 29.94 1014 10 16 0.00 0.00
7:53 am 07:53 Mostly Sunny 65 18.3 61 16.1 87 87 NW 14 22 29.95 1014 10 16 0.00 0.00
8:38 am 08:38 Mostly Cloudy 64 17.8 61 16.1 90 90 NW 14 22 29.94 1014 10 16 0.00 0.00
8:53 am 08:53 Cloudy 64 17.8 60 15.6 87 87 NNW 12 19 29.96 1015 10 16 0.00 0.00
9:53 am 09:53 Cloudy 65 18.3 59 15 81 81 NW 14 22 29.97 1015 10 16 0.00 0.00
10:06 am 10:06 Cloudy 65 18.3 59 15 81 81 NW 14 22 29.94 1014 10 16 0.00 0.00
10:14 am 10:14 Cloudy 65 18.3 60 15.6 84 84 NW 15 24 29.94 1014 10 16 0.00 0.00
10:53 am 10:53 Cloudy 66 18.9 60 15.6 81 81 NW 15 24 29.97 1015 10 16 0.00 0.00
11:53 am 11:53 Cloudy 67 19.4 60 15.6 79 79 NW 15 24 29.97 1015 10 16 0.00 0.00
12:53 pm 12:53 Cloudy 70 21.1 60 15.6 71 71 NNW 15 24 29.96 1015 10 16 0.00 0.00
1:53 pm 13:53 Mostly Cloudy 72 22.2 60 15.6 66 66 NW 12 19 29.97 1015 10 16 0.00 0.00
2:26 pm 14:26 Mostly Cloudy 72 22.2 60 15.6 66 66 N 13 20 29.92 1013 10 16 0.00 0.00
2:53 pm 14:53 Partly Cloudy 73 22.8 60 15.6 64 64 NNW 13 20 29.96 1015 10 16 0.00 0.00
3:53 pm 15:53 Sunny 75 23.9 58 14.4 55 55 NNW 12 19 29.95 1014 10 16 0.00 0.00
4:53 pm 16:53 Mostly Sunny 75 23.9 58 14.4 55 55 NW 13 20 29.94 1014 10 16 0.00 0.00
5:53 pm 17:53 Sunny 75 23.9 58 14.4 55 55 NNW 9 15 29.94 1014 10 16 0.00 0.00
6:53 pm 18:53 Sunny 74 23.3 58 14.4 57 57 NNW 10 17 29.94 1014 10 16 0.00 0.00
7:53 pm 19:53 Sunny 73 22.8 58 14.4 59 59 N 9 15 29.94 1014 10 16 0.00 0.00
8:53 pm 20:53 Sunny 67 19.4 60 15.6 79 79 N 6 9 29.96 1015 10 16 0.00 0.00
9:53 pm 21:53 Clear 64 17.8 60 15.6 87 87 Calm 29.98 1015 10 16 0.00 0.00
10:53 pm 22:53 Clear 63 17.2 59 15 87 87 N 5 7 29.99 1016 10 16 0.00 0.00
11:53 pm 23:53 Clear 61 16.1 59 15 93 93 NE 3 6 30.00 1016 10 16 0.00 0.00

Powered by AerisWeather